This is the latest recevied weather packets stored in our database for station/object DC4THF-13. If no packets are shown the sender has not sent any weather packets the latest 10 day(s).
| Time | Temp. | Humidity | Pressure | Rain* | Wind** | Luminosity | Snow |
|---|---|---|---|---|---|---|---|
| 1787749950 | 22.78° C | 42% | 1014.5 hPa | 0 mm | - | - | - |
| 1787749347 | 22.78° C | 42% | 1014.5 hPa | 0 mm | - | - | - |
| 1787748744 | 22.78° C | 42% | 1014.5 hPa | 0 mm | - | - | - |
| 1787748141 | 22.78° C | 42% | 1014.4 hPa | 0 mm | - | - | - |
| 1787747538 | 22.78° C | 41% | 1014.2 hPa | 0 mm | - | - | - |
| 1787746935 | 23.33° C | 41% | 1014.3 hPa | 0 mm | - | - | - |
| 1787746332 | 23.33° C | 42% | 1014.2 hPa | 0 mm | - | - | - |
| 1787745789 | 23.33° C | 42% | 1014.1 hPa | 0 mm | - | - | - |
| 1787745185 | 23.33° C | 41% | 1014.1 hPa | 0 mm | - | - | - |
| 1787744581 | 24.44° C | 40% | 1014.1 hPa | 0 mm | - | - | - |
| 1787743978 | 23.89° C | 42% | 1014.1 hPa | 0 mm | - | - | - |
| 1787743374 | 23.33° C | 41% | 1014.2 hPa | 0 mm | - | - | - |
| 1787742771 | 23.89° C | 41% | 1014.2 hPa | 0 mm | - | - | - |
| 1787742167 | 23.33° C | 41% | 1014.2 hPa | 0 mm | - | - | - |
| 1787741563 | 23.89° C | 40% | 1014.1 hPa | 0 mm | - | - | - |
| 1787740959 | 25° C | 40% | 1014.1 hPa | 0 mm | - | - | - |
| 1787740357 | 25° C | 40% | 1014.1 hPa | 0 mm | - | - | - |
| 1787739753 | 24.44° C | 42% | 1014.1 hPa | 0 mm | - | - | - |
| 1787739150 | 25° C | 42% | 1014.2 hPa | 0 mm | - | - | - |
| 1787738548 | 25° C | 42% | 1014.3 hPa | 0 mm | - | - | - |
| 1787737945 | 23.89° C | 45% | 1014.4 hPa | 0 mm | - | - | - |
| 1787737342 | 24.44° C | 45% | 1014.6 hPa | 0 mm | - | - | - |
| 1787736738 | 23.89° C | 45% | 1014.8 hPa | 0 mm | - | - | - |
| 1787736136 | 23.89° C | 47% | 1014.8 hPa | 0 mm | - | - | - |
| 1787735533 | 23.33° C | 49% | 1014.8 hPa | 0 mm | - | - | - |
* Rain latest hour (hover to see other rain measurements)
** Current wind speed in m/s (hover to see current wind gust speed)